Date String (YYYY-MM-DD hh:mm:ss) UTC,Instrument flags,absolute air pressure of the measurement (hPa),sample flow rate (lpm),inlet stack bypass flow (lpm),air temperature of the measurement (°C),ambient temperature measured by the external sensor (°C),aerosol sample conditioner tube jacket temperature (°C),OPC LED temperature (°C),internal box temperature (°C),relative humidity of the measurement (%),span deviation,mass concentration of particles derived from Lorenz-Mie calculation of OPC scattering (μg/m³),mass concentration of particles derived from Lorenz-Mie calculation of OPC scattering (μg/m³),mass concentration of particles derived from Lorenz-Mie calculation of OPC scattering (μg/m³)
DateTimeUTC,F1_M11,P_M11,Q1_M11,Q2_M11,T1_M11,T2_M11,T3_M11,T4_M11,T5_M11,U1_M11,ZSPAN_M11,X0_M11,X2_M11,X1_M11
2023-06-29 16:00:00,SystemResetWarning,0832.9,5.02,000.00,030.2,027.5,000.0,038.5,031.1,34.2,-002.5,0017.72,0007.10,0005.86
2023-06-29 16:01:00,SystemResetWarning,0832.9,4.98,000.00,030.2,027.7,000.0,038.6,031.2,33.8,-002.8,0018.49,0007.12,0005.87
2023-06-29 16:02:00,SystemResetWarning,0832.9,4.99,000.00,030.3,027.9,000.0,038.6,031.2,33.8,-003.5,0019.07,0007.11,0005.85
2023-06-29 16:03:00,SystemResetWarning,0832.9,5.01,000.00,030.3,028.0,000.0,038.6,031.3,34.2,-003.5,0016.98,0007.10,0005.85
2023-06-29 16:04:00,SystemResetWarning,0833.2,5.01,000.00,030.3,028.1,000.0,038.6,031.3,34.3,-003.4,0017.48,0007.11,0005.86
2023-06-29 16:05:00,SystemResetWarning,0833.0,5.00,000.00,030.3,028.2,000.0,038.6,031.3,33.8,-003.3,0017.28,0007.08,0005.86
2023-06-29 16:06:00,SystemResetWarning,0832.8,5.00,000.00,030.3,028.3,000.0,038.7,031.4,33.7,-003.5,0018.16,0007.07,0005.86
2023-06-29 16:07:00,SystemResetWarning,0832.7,5.00,000.00,030.3,028.4,000.0,038.7,031.4,33.5,-003.7,0018.36,0007.06,0005.87
2023-06-29 16:08:00,SystemResetWarning,0832.8,5.00,000.00,030.3,028.3,000.0,038.7,031.5,33.2,-003.6,0018.49,0007.05,0005.87
2023-06-29 16:09:00,SystemResetWarning,0832.8,4.99,000.00,030.3,026.8,000.0,038.5,031.3,33.3,-003.5,0018.57,0007.08,0005.87
2023-06-29 16:10:00,SystemResetWarning,0832.8,5.00,000.00,030.3,025.6,000.0,038.4,031.1,33.6,-003.5,0017.78,0007.08,0005.88
2023-06-29 16:11:00,SystemResetWarning,0832.7,5.01,000.00,030.2,025.4,000.0,038.4,030.9,33.4,-003.2,0017.43,0007.13,0005.91
2023-06-29 16:12:00,SystemResetWarning,0832.7,5.01,000.00,030.0,025.7,000.0,038.4,030.7,34.1,-003.0,0017.13,0007.15,0005.94
2023-06-29 16:13:00,SystemResetWarning,0832.7,4.99,000.00,029.9,026.1,000.0,038.4,030.8,34.7,-002.7,0017.01,0007.20,0005.97
2023-06-29 16:14:00,SystemResetWarning,0832.7,5.01,000.00,029.9,026.5,000.0,038.4,030.9,35.4,-001.8,0016.55,0007.22,0005.98
2023-06-29 16:15:00,SystemResetWarning,0832.7,5.00,000.00,030.1,026.8,000.0,038.4,031.0,34.1,-001.5,0016.68,0007.24,0006.00
2023-06-29 16:16:00,SystemResetWarning,0832.7,4.99,000.00,030.2,027.1,000.0,038.4,031.1,34.2,-001.7,0016.69,0007.24,0006.03
2023-06-29 16:17:00,SystemResetWarning,0832.7,5.02,000.00,030.2,027.4,000.0,038.4,031.2,34.2,-001.0,0017.01,0007.26,0006.02
2023-06-29 16:18:00,SystemResetWarning,0832.7,5.00,000.00,030.3,027.6,000.0,038.5,031.2,33.9,-000.5,0016.75,0007.28,0006.02
2023-06-29 16:19:00,SystemResetWarning,0832.7,5.00,000.00,030.3,027.8,000.0,038.5,031.2,34.1,-000.4,0016.45,0007.29,0006.04
2023-06-29 16:20:00,SystemResetWarning,0832.7,5.00,000.00,030.3,028.0,000.0,038.5,031.3,33.8,-000.4,0017.43,0007.32,0006.05
2023-06-29 16:21:00,SystemResetWarning,0832.7,5.00,000.00,030.4,028.1,000.0,038.6,031.3,34.6,-000.8,0017.69,0007.27,0006.04
2023-06-29 16:22:00,SystemResetWarning,0832.7,5.03,000.00,030.4,028.2,000.0,038.6,031.4,33.7,-001.1,0018.23,0007.23,0006.05
2023-06-29 16:23:00,SystemResetWarning,0832.7,4.98,000.00,030.4,028.3,000.0,038.6,031.4,33.6,-001.4,0019.09,0007.25,0006.07
2023-06-29 16:24:00,SystemResetWarning,0832.7,5.00,000.00,030.5,028.4,000.0,038.7,031.4,34.4,-001.5,0020.41,0007.30,0006.09
2023-06-29 16:25:00,SystemResetWarning,0832.6,5.00,000.00,030.5,027.7,000.0,038.6,031.5,33.9,-002.0,0020.03,0007.27,0006.10
2023-06-29 16:26:00,SystemResetWarning,0832.6,5.01,000.00,030.5,026.1,000.0,038.5,031.3,33.3,-002.0,0020.02,0007.28,0006.12
2023-06-29 16:27:00,SystemResetWarning,0832.6,5.00,000.00,030.4,025.4,000.0,038.4,031.1,33.6,-001.8,0020.77,0007.37,0006.14
2023-06-29 16:28:00,SystemResetWarning,0832.6,5.01,000.00,030.3,025.6,000.0,038.4,030.9,34.3,-002.0,0020.58,0007.42,0006.18
2023-06-29 16:29:00,SystemResetWarning,0832.6,5.01,000.00,030.2,025.9,000.0,038.5,030.8,34.5,-002.1,0020.79,0007.50,0006.20
2023-06-29 16:30:00,SystemResetWarning,0832.6,5.00,000.00,030.1,026.3,000.0,038.5,030.9,34.4,-002.3,0020.98,0007.59,0006.22
2023-06-29 16:31:00,SystemResetWarning,0832.6,4.97,000.00,030.1,026.7,000.0,038.5,031.0,35.1,-002.3,0020.51,0007.61,0006.23
2023-06-29 16:32:00,SystemResetWarning,0832.6,5.04,000.00,030.1,027.0,000.0,038.5,031.1,34.2,-002.2,0020.73,0007.68,0006.27
2023-06-29 16:33:00,SystemResetWarning,0832.6,4.95,000.00,030.2,027.3,000.0,038.5,031.2,34.4,-002.1,0020.14,0007.73,0006.31
2023-06-29 16:34:00,SystemResetWarning,0832.7,5.05,000.00,030.3,027.6,000.0,038.5,031.2,34.1,-002.2,0019.35,0007.75,0006.30
2023-06-29 16:35:00,SystemResetWarning,0832.7,4.96,000.00,030.4,027.8,000.0,038.6,031.3,33.6,-002.2,0018.56,0007.72,0006.31
2023-06-29 16:36:00,SystemResetWarning,0832.7,5.03,000.00,030.4,028.0,000.0,038.6,031.3,33.1,-002.3,0019.32,0007.79,0006.34
2023-06-29 16:37:00,SystemResetWarning,0832.7,5.00,000.00,030.5,028.1,000.0,038.6,031.4,32.6,-002.2,0020.07,0007.91,0006.38
2023-06-29 16:38:00,SystemResetWarning,0832.7,4.99,000.00,030.5,028.2,000.0,038.7,031.4,32.9,-002.1,0018.81,0007.99,0006.43
2023-06-29 16:39:00,SystemResetWarning,0832.6,4.99,000.00,030.5,028.3,000.0,038.7,031.5,32.8,-002.0,0018.32,0008.05,0006.45
2023-06-29 16:40:00,SystemResetWarning,0832.6,5.00,000.00,030.6,027.6,000.0,038.6,031.4,32.9,-002.2,0018.09,0008.09,0006.49
2023-06-29 16:41:00,SystemResetWarning,0832.6,5.00,000.00,030.5,026.1,000.0,038.5,031.2,33.1,-002.0,0017.76,0008.04,0006.51
2023-06-29 16:42:00,SystemResetWarning,0832.5,5.00,000.00,030.4,025.4,000.0,038.5,031.0,32.8,-001.9,0017.41,0008.06,0006.54
2023-06-29 16:43:00,SystemResetWarning,0832.5,5.01,000.00,030.3,025.5,000.0,038.5,030.8,33.5,-001.8,0018.36,0008.13,0006.57
2023-06-29 16:44:00,SystemResetWarning,0832.5,5.00,000.00,030.2,025.9,000.0,038.5,030.8,34.3,-001.9,0019.68,0008.14,0006.57
2023-06-29 16:45:00,SystemResetWarning,0832.5,5.00,000.00,030.1,026.3,000.0,038.5,030.9,34.2,-001.8,0020.00,0008.13,0006.58
2023-06-29 16:46:00,SystemResetWarning,0832.6,4.99,000.00,030.1,026.7,000.0,038.5,030.9,34.4,-001.7,0019.02,0008.15,0006.57
2023-06-29 16:47:00,SystemResetWarning,0832.6,4.99,000.00,030.1,027.0,000.0,038.5,031.0,33.9,-001.4,0018.45,0008.17,0006.58
2023-06-29 16:48:00,SystemResetWarning,0832.5,5.01,000.00,030.1,027.3,000.0,038.5,031.1,33.5,-001.6,0017.45,0008.12,0006.57
2023-06-29 16:49:00,SystemResetWarning,0832.5,5.01,000.00,030.1,027.6,000.0,038.5,031.1,33.3,-001.8,0018.16,0008.11,0006.58
2023-06-29 16:50:00,SystemResetWarning,0832.5,4.98,000.00,030.1,027.8,000.0,038.5,031.2,32.9,-001.9,0018.79,0008.14,0006.61
2023-06-29 16:51:00,SystemResetWarning,0832.5,4.99,000.00,030.1,028.0,000.0,038.6,031.2,33.0,-001.8,0019.66,0008.15,0006.64
2023-06-29 16:52:00,SystemResetWarning,0832.5,5.01,000.00,030.1,028.1,000.0,038.6,031.3,33.4,-001.8,0020.14,0008.27,0006.68
2023-06-29 16:53:00,SystemResetWarning,0832.5,5.01,000.00,030.1,028.2,000.0,038.6,031.3,33.5,-001.8,0020.67,0008.38,0006.70
2023-06-29 16:54:00,SystemResetWarning,0832.5,4.99,000.00,030.2,028.0,000.0,038.5,031.4,33.8,-001.7,0020.53,0008.34,0006.70
2023-06-29 16:55:00,SystemResetWarning,0832.5,4.97,000.00,030.1,026.5,000.0,038.4,031.2,34.7,-001.3,0020.20,0008.32,0006.71
2023-06-29 16:56:00,SystemResetWarning,0832.5,5.04,000.00,030.1,025.4,000.0,038.3,031.0,34.5,-001.2,0020.12,0008.37,0006.72
2023-06-29 16:57:00,SystemResetWarning,0832.5,4.98,000.00,030.1,025.3,000.0,038.2,030.8,33.7,-001.2,0021.03,0008.39,0006.75
2023-06-29 16:58:00,SystemResetWarning,0832.5,4.99,000.00,030.0,025.6,000.0,038.3,030.7,33.9,-001.4,0021.39,0008.41,0006.80
2023-06-29 16:59:00,SystemResetWarning,0832.5,5.01,000.00,029.9,026.0,000.0,038.3,030.8,34.7,-001.5,0022.37,0008.42,0006.82
